Tracking 27428 objects as of 31-May-2023
HD Live streaming from Space Station
objects crossing your sky now

USA 118

Track USA 118 now!
USA 118 is classified as:


NORAD ID: 23855
Int'l Code: 1996-026A
Perigee: 34,277.8 km
Apogee: 37,310.7 km
Inclination: 8.6 °
Period: 1,436.1 minutes
Semi major axis: 42165 km
RCS: Unknown
Launch date: April 24, 1996
Source: United States (US)
Launch site: AIR FORCE EASTERN TEST RANGE (AFETR)

In the $1 billion range; ELINT; signals intelligence.
Your satellite tracking list
Your tracking list is empty




NASA's NSSDC Master Catalog

Two Line Element Set (TLE):
1 23855U 96026A   22277.80536195 0.00000000  00000-0  00000-0 0    06
2 23855   8.5591 353.3250 0359634 283.9458  76.0545  1.00270000    00
Source of the keplerian elements: McCants